Погода в Намангане

Погода в Намангане : погода сейчас, прогноз погоды и архив. Всё, что Вы хотите узнать о погоде в Намангане!

Хотите узнать прогноз погоды в Намангане? Тогда Вам сюда: Погода в Намангане

Поиск расширенной информации на нашем сайте:

Другие новости

Новости СМИ2

Главная страница сайта

Новости сайта

03.07.2017

Напоминаем, что на нашем специализированном сайте Метеоцентр.Азия вы можете получить высокодетализированные автоматические прогнозы погоды по пунктам России, СНГ и мира в авиационном формате (включающие направление и скорость ветра, видимость, явления погоды, количество и форму облачности, нижнюю и верхнюю границу облачности).


Погода в Намангане - сегодня

Время (UTC), дата Ветер
(°,м/с) 
Видим.   Явления Облачность Т
(°С)
Тd
(°С)
f(%) Тe
(°С)
Pmin
(гПа)
dP
(гПа)
Po
(мм)
O2
(г/м3)
Тmin Tmax R s Состояние
почвы
18 17.11.17 330 (СЗ) 2000 м  дымка  ясно 
+3.6 -1 72 +3  1027.6  0.5  728  290    +13       
21 17.11.17 330 (СЗ) 2000 м  дымка  ясно 
+2.8 -1.7 72 +1  1026.9  -0.6  727  290           
00 18.11.17 330 (СЗ) 2000 м  дымка  ясно 
+2.2 -2.1 73 +1  1027  -0.3  727  291           
03 18.11.17 320 (СЗ) 4000 м  дымка  ясно 
+0.6 -3 77 +1  1030.1  1.6  728  293           
06 18.11.17 090 (В) 4000 м  дымка  ясно 
+7.6 -1.7 52 +8  1029.2  0.5  729  286  +0         
09 18.11.17 150 (ЮВ) 4000 м  дымка  ясно 
+10 +1.3 55 +11  1027.9  -0.6  728  283           
12 18.11.17 120 (ЮВ) 2000 м  дымка  6/0 верхняя 
[Ci fib]
+9.5 +0.9 55 +11  1029.3  1.2  729  284         
15 18.11.17 340 (С) 2000 м  дымка  9/0 средняя 
[Ac lent]
+6 +1.2 71 +6  1032.1  1.9  731  288    +11       
18 18.11.17 330 (СЗ) 4000 м  дымка  9/0 средняя 
[Ac lent]
+5 +0 70 +5  1033.4  731  289    +11       
21 18.11.17 330 (СЗ) 4000 м  дымка  5/0 средняя 
[Ac cuf]
+4.3 -1.8 64 +3  1033.2  -0.3  731  290           
00 19.11.17 310 (СЗ) 4000 м  дымка  ясно 
+1.5 -2.3 76 +1  1034.8  0.9  732  294           
03 19.11.17 310 (СЗ) 4000 м  дымка  3/0 средняя 
[Ac cuf]
+1.7 -3.4 69 +1  1036.2  1.3  733  294  +1         
06 19.11.17 130 (ЮВ) 2000 м  дымка  ясно 
+6.9 +1.4 68 +8  1035.5  0.5  733  288  +1         
09 19.11.17 100 (В) 4000 м  дымка  ясно 
+10.1 +1.7 56 +10  1033.1  -1.6  732  284           
12 19.11.17 270 (З) 2000 м  дымка  ясно 
+8.6 +2.7 66 +9  1032.5  -0.9  731  285           
15 19.11.17 340 (С) 2000 м  дымка  ясно 
+5 -0.6 67 +5  1033.2  -0.1  731  289    +10.6       
18 19.11.17 330 (СЗ) 4000 м  дымка  ясно 
+3.5 -2.5 65 +3  1032.8  -0.7  731  291    +10.6       
21 19.11.17 340 (С) 10 км    ясно 
+2 -3.7 66 +1  1032.9  -0.2  731  293           
00 20.11.17 340 (С) 10 км    ясно 
+0.6 -4.2 70 1033.4  -0.8  730  294           
03 20.11.17 340 (С) 10 км    ясно 
+0.9 -5.1 64 1032.7  0.4  730  294  +0        замёрзшая 
06 20.11.17 140 (ЮВ) 4000 м  дымка  ясно 
+8 -0.5 55 +8  1021.4  0.2  731  286  +0         
09 20.11.17 160 (Ю) 4000 м  дымка  ясно 
+12.4 +1.1 46 +13  1028.4  -2  729  281           
12 20.11.17 тихо ()   4000 м  дымка  6/0 верхняя 
[Ci fib]
+10.2 +0 49 +10  1028  -0.7  728  283           
15 20.11.17 350 (С) 2000 м  дымка  5/0 верхняя 
[Ci fib]
+5.1 +1 75 +4  1029.5  0.4  729  288    +13       
18 20.11.17 340 (С) 4000 м  дымка  ясно 
+3 -3.1 64 +2  1029.8  0.2  729  291    +13       
Время (UTC), дата Ветер
(°,м/с) 
Видим.   Явления Облачность Т
(°С)
Тd
(°С)
f(%) Тe
(°С)
Pmin
(гПа)
dP
(гПа)
Po
(мм)
O2
(г/м3)
Тmin Tmax R s Состояние
почвы

Для получения пояснительной информации подведите курсор к названию столбца.

ПОГОДА в Намангане - архив

Всё, что Вы хотите узнать о погоде в Намангане - удобно и подробно!

Выберите нужную дату (начиная с 1 января 2015* года) и нажмите кнопку "Найти".
Будут отображены архивные сводки погоды по пункту Наманган, начиная с указанной даты.


Отображать данные в формате CSV (для использования в таблицах Excel)


Внимание! Наш архив погоды предназначен исключительно для личного некоммерческого использования в познавательных целях. Если Вам необходимы официальные справки о состоянии погоды (для производственных, юридических, коммерческих и т.п. целей), обращайтесь в органы Росгидромета.

*Примечание: данная дата относится к архиву по метеостанциям СССР (Россия, СНГ, Балтия).
Архив по метеостанциям Зарубежной Европы и Азии (кроме Китая) хранится 10 дней, по другим регионам земного шара (Китай, Африка, Америка, Австралия, Океания) - 1 день.

Наманган - район местоположения метеостанции


Название, широта, долгота, высота метеостанции:
Наманган 41°ш. 71.6°д. 474 м над ур. моря [Узбекистан]

Дополнительная информация

В oтличие oт бoльшинства пoгoдных сайтoв мы публикуем пoдрoбную метеoинфoрмацию в детальнoм прoфессиoнальнoм фoрмате.

Характеристики температуры и влажнoсти вoздуха измеряются на высoте 2 м в тени вдали oт зданий и деревьев.
Скoрoсть ветра измеряется на высoте 10 м (на урoвне рoста челoвека скoрoсть ветра ниже в 1.5-2 раза). Если метеoстанция нахoдится в гoрoде или в лесу, тo скoрoсть ветра занижена на 2-4 м/с пo сравнению с oткрытым местoм. Скoрoсть ветра над акватoриями крупных рек и oзёр, а также на вершинах хoлмoв на 2-5 м/с выше, чем в oбычных услoвиях.
Атмoсфернoе давление в разных тoчках местнoсти мoжет значительнo oтличаться oт давления на метеoстанции, в зависимoсти oт услoвий рельефа (при пoдъёме на 10 м давление пoнижается примернo на 1 мм рт.ст.).